www.pogodaiklimat.ru

Погода и климат >> Архив погоды >> Украина >> Семеновка


ПОГОДА в Семеновке

  • Прогноз погоды в Семеновке
  • Монитор погоды в Семеновке

АРХИВ ПОГОДЫ в Семеновке

Время (UTC), дата Ветер
(напр.,м/с)
 
Видим.   Явления Облачность Т
(С)
Тd
(С)
f
(%)
Тe
(С)
Тes
(С)
Комфортность P
(гПа)
Po
(гПа)
Тmin
(С)
Tmax
(С)
R
(мм)
R24
(мм)
S
(см)
15 10.09 ЮВ 2 20 км 3/0
[Ci fib]
+26.4 +6.4 28 +26 +26 жарко 1024.0 1005.4
18 10.09 ЮВ 1 17 км ясно +17.4 +8.0 54 +18 +18 1025.0 1005.8 +28.5
21 10.09 ЮВ 1 16 км ясно +13.7 +6.8 63 +14 +14 1027.0 1007.5
00 11.09 ЮВ 1 16 км ясно +12.6 +6.4 66 +13 +13 1027.0 1007.4
03 11.09 В 1 14 км ясно +9.8 +5.0 72 +9 +9 1028.0 1008.2
06 11.09 В 2 21 км 1/0
[Ci fib]
+17.1 +5.7 47 +17 +20 1029.0 1009.7 +9.4
09 11.09 Ю 4 20 км 1/0
[Ci fib]
+25.8 +3.7 24 +25 +31 комфорт 1028.0 1009.3
12 11.09 Ю 3 22 км 3/0
[Ci fib]
+26.9 +2.7 21 +25 +29 комфорт 1027.0 1008.4
15 11.09 ЮВ 2 20 км 1/0
[Ci fib]
+26.3 +4.7 25 +25 +26 комфорт 1027.0 1008.3
18 11.09 ЮВ 1 17 км 3/0
[Ci fib]
+18.0 +6.8 48 +19 +19 1028.0 1008.8 +28.2
21 11.09 штиль 0 16 км 8/0
[Cs]
+11.8 +6.9 72 +11 +11 1028.0 1008.4
00 12.09 штиль 0 15 км 8/0
[Cs]
+9.8 +6.0 77 +9 +9 1028.0 1008.2
03 12.09 штиль 0 14 км 8/0
[Ci fib]
+6.6 +4.3 85 +6 +6 1029.0 1009.0
06 12.09 Ю 2 13 км 8/0
[Ci fib]
+16.3 +5.6 49 +17 +17 1028.0 1008.7 +6.6
09 12.09 ЮВ 3 16 км 6/0
[Ci fib]
+25.7 +4.7 26 +25 +28 комфорт 1027.0 1008.3
12 12.09 Ю 4 21 км 6/0
[Ci fib]
+27.9 +2.1 19 +26 +28 жарко 1026.0 1007.4
15 12.09 Ю 2 27 км 3/0
[Ci fib]
+26.9 +4.0 23 +26 +26 жарко 1025.0 1006.4
18 12.09 штиль 0 16 км 1/0
[Ci fib]
+16.8 +8.5 58 +17 +17 1026.0 1006.8 +28.1
21 12.09 ЮВ 1 16 км 3/0
[Ci fib]
+12.0 +7.1 72 +12 +12 1026.0 1006.4
00 13.09 ЮВ 1 15 км 5/0
[Ci fib]
+9.8 +5.6 75 +9 +9 1025.0 1005.3
03 13.09 штиль 0 15 км 1/0
[Ci fib]
+7.3 +4.8 84 +6 +6 1025.0 1005.1
06 13.09 Ю 1 12 км 3/0
[Ac trans Ci fib]
+16.1 +6.2 52 +17 +19 1024.0 1004.7 +7.3
09 13.09 З 3 14 км 4/0
[Ac trans Ci fib]
+26.3 +7.3 30 +26 +31 жарко 1023.0 1004.4
12 13.09 З 6 16 км 8/3 600 м
[Sc diur, vesp Ac trans Ci fib]
+27.4 +7.8 29 +27 +27 жарко 1021.0 1002.5
15 13.09 З 4 17 км 5/1 600 м
[Sc diur, vesp Ci fib]
+25.0 +8.0 34 +25 +25 комфорт 1019.0 1000.4
18 13.09 З 3 15 км 1/0
[Ci fib]
+18.6 +8.5 52 +19 +19 1020.0 1001.0 +28.0
21 13.09 ЮЗ 1 15 км 5/0
[Ac trans]
+14.5 +9.5 72 +15 +15 1020.0 1000.7
00 14.09 ЮЗ 3 14 км 10/3 600 м
[Cb cap Ac und]
+17.2 +11.9 71 +17 +17 1018.0 998.9
03 14.09 З 3 14 км в посл. час ливневой дождь 10/4 600 м
[Cb cap Ac und]
+15.9 +10.9 72 +15 +15 1018.0 998.9
06 14.09 СЗ 6 25 км {ливн. осадки} 8/3 600 м
[Sc Ac trans Ci fib]
+14.3 +7.1 62 +13 +13 1021.0 1001.7 +14.0 0.0
09 14.09 СЗ 5 20 км 5/4 600 м
[Sc Ci fib]
+17.2 +5.2 45 +17 +18 1022.0 1002.8
12 14.09 СЗ 6 26 км 3/3 1000 м
[Sc]
+18.7 +1.7 32 +18 +20 1021.6 1002.6
15 14.09 СЗ 5 23 км 1/1 1000 м
[Sc]
+17.9 +0.1 30 +18 +18 1022.0 1002.9
18 14.09 СЗ 2 20 км ясно +11.8 +2.0 51 +11 +11 1023.0 1003.4 +20.0
21 14.09 З 2 18 км ясно +8.4 +3.0 69 +7 +7 1024.0 1004.2
00 15.09 З 2 17 км 10/0
[Cs]
+8.5 +4.1 74 +7 +7 1023.0 1003.2
03 15.09 З 2 13 км 1/0
[Ci fib]
+6.1 +3.2 82 +4 +4 1023.4 1003.5
06 15.09 З 2 19 км 1/0
[Ci fib]
+9.7 +6.1 78 +8 +11 1023.0 1003.3 +4.5
09 15.09 З 5 19 км 8/3 1000 м
[Sc Ci fib]
+16.2 +4.8 47 +15 +18 1021.6 1002.4
12 15.09 З 5 21 км 8/1 1000 м
[Sc Cs]
+18.4 -0.4 28 +18 +18 1019.0 1000.0
15 15.09 ЮЗ 5 17 км 10/0
[Cs]
+16.7 +1.6 36 +16 +16 1017.0 997.9
18 15.09 Ю 2 15 км 10/0
[Ac trans Cs]
+13.2 +4.1 54 +13 +13 1015.0 995.7 +19.1
21 15.09 ЮЗ 4 15 км 8/0
[Cs]
+13.2 +3.3 51 +12 +12 1013.0 993.7
00 16.09 ЮЗ 4 15 км 10/0
[Ac trans Cs]
+13.1 +2.6 49 +12 +12 1010.0 990.8
03 16.09 З 5 14 км 10/8 800 м
[Sc Cs]
+12.3 +2.7 52 +10 +10 1009.0 989.8
06 16.09 Ю 5 18 км в посл. час ливневой дождь 10/4 600 м
[Cb cap Ac As]
+11.8 +5.9 67 +9 +9 1008.0 988.8 +11.4 0.0
09 16.09 З 6 24 км {ливн. осадки} 4/3 600 м
[Cu med, cong Ac trans]
+18.3 +6.2 45 +18 +20 1007.0 988.2
12 16.09 З 8 14 км {ливн. осадки} 8/8 870 м
[Cu med, cong Ci fib]
+20.8 +3.5 32 +21 +21 комфорт 1006.0 987.4
15 16.09 СЗ 7 19 км 6/1 600 м
[Sc diur, vesp Ci fib]
+18.9 +3.1 35 +19 +19 1006.0 987.2
18 16.09 З 2 17 км 6/5 600 м
[Sc Ci fib]
+13.2 +5.8 61 +13 +13 1007.0 987.9 +21.6 0.0
21 16.09 З 2 15 км 10/0
[Ac As]
+11.8 +5.4 65 +11 +11 1007.0 987.8
00 17.09 ЮЗ 3 15 км 8/0
[Ac trans]
+10.3 +5.3 71 +8 +8 1006.0 986.7
03 17.09 ЮЗ 3 14 км 4/4 600 м
[Sc]
+8.4 +4.8 78 +6 +6 1006.0 986.6
06 17.09 З 5 17 км ясно +10.6 +4.9 68 +8 +9 1006.0 986.7 +7.5
09 17.09 З 7 20 км 8/5 600 м
[Cu Sc Ac trans Ci fib]
+14.9 +4.3 49 +13 +13 1006.0 987.0
12 17.09 СЗ 7 19 км в посл. час ливневой дождь 8/4 600 м
[Cb cap Ac trans Ci fib]
+15.5 +1.2 38 +14 +14 1005.0 986.0

 

Местоположение метеостанции Семеновка (Черниговская область, Украина): широта 52.18 долгота 32.58 высота над уровнем моря 161 м.

В архиве по умолчанию представлена погода в Семеновке за последнюю неделю. Архивные данные за месяц целиком и за предыдущие месяцы, начиная с января 2011 года, Вы можете получить, выбрав интересующий диапазон дат из раскрывающегося списка и нажав кнопку "Ввод!".


*Определитесь, кто Вы:
робот инопланетянин человек

Внимание! Время в таблицах - всемирное. Для получения местного времени необходимо прибавить поправку, которая равна 2 ч.

Смотрите также архив погоды в соседних городах и на ближайших метеорологических станциях:

Погода в Щорсе (Черниговская область, Украина) (59 км)
Погода в Унече (Брянская область, Россия) (73 км)
Погода в Покошичах (Черниговская область, Украина) (85 км)
Погода в Трубчевске (Брянская область, Россия) (92 км)
Погода в Дружбе (Сумская область, Украина) (95 км)
Погода в Глухове (Сумская область, Украина) (107 км)
Погода в Гомеле (Гомельская область, Беларусь) (113 км)
Погода в Конотопе (Сумская область, Украина) (114 км)
Погода в Красной Горе (Брянская область, Россия) (115 км)
Погода в Чернигове (Черниговская область, Украина) (121 км)

Пояснения к столбцам:

Ветер - указаны скорость ветра в м/с - средняя за 10 мин, порывы в срок и между сроками (в фигурных скобках) и направление, откуда дует ветер: С - северный, СВ - северо-восточный, В - восточный, ЮВ - юго-восточный, Ю - южный, ЮЗ - юго-западный, З - западный, СЗ - северо-западный.
Видимость - горизонтальная дальность видимости в метрах или километрах. При видимости от 1 до 10 км при отсутствии осадков обычно наблюдается дымка, при ухудшении видимости до 1 км и менее - туман. В сухую погоду видимость может ухудшаться дымом, пылью или мглою.
Явления - указаны атмосферные явления, наблюдавшиеся в срок или в последний час перед сроком; фигурными скобками обозначены явления, наблюдавшиеся между сроками (за 1-3 часа до срока); квадратными скобками обозначены град или гололедные отложения с указанием их диаметра в мм.
Облачность - указаны через наклонную черту общая и нижняя облачность в баллах и высота нижней границы облаков в метрах; квадратными скобками обозначены формы облаков: Ci - перистые, Cs - перисто-слоистые, Cc - перисто-кучевые, Ac - высококучевые, As - высокослоистые, Sc - слоисто-кучевые, Ns - слоисто-дождевые, Cu - кучевые, Cb - кучево-дождевые. Подробнее классификацию облаков см. в Атласе облаков (PDF).
T - Температура воздуха - температура, измеренная на высоте 2 м над землей.
Td - Температура точки росы - температура, при понижении до которой содержащийся в воздухе водяной пар достигнет насыщения.
f - Относительная влажность воздуха - влажноcть воздуха, измеренная на высоте 2 м над землей.
Te - Эффективная температура - температура, которую ощущает одетый по сезону человек в тени. Характеристика душности погоды. При расчете учитывается влияние влажности воздуха и скорости ветра на теплоощущения человека.
Tes - Эффективная температура на солнце - температура, которую ощущает человек, с поправкой на солнечный нагрев. Характеристика знойности погоды. Зависит от высоты солнца над горизонтом, облачности и скорости ветра. Ночью, в пасмурную погоду, а также при ветре 12 м/с и более поправка равна нулю.
P - Атмосферное давление - приведенное к уровню моря атмосферное давление.
Po - Атмосферное давление - измеренное на уровне метеостанции атмосферное давление.
Tmin - Минимальная температура - минимум температуры воздуха на высоте 2 м над землей.
Tmax - Максимальная температура - максимум температуры воздуха на высоте 2 м над землей.
R - Количество осадков - Количество выпавших осадков за период времени, мм. При наведении курсора мыши на число - период времени, за который выпало указанное количество осадков.
R24 - Количество осадков - Количество выпавших осадков за 24 часа, мм.
S - Снежный покров - Высота снежного покрова, см. При наведении курсора мыши на число - состояние снежного покрова и степень покрытия местности в баллах.